Regional Weather Roundup
Issued by NWS

Home | Current Version | Previous Version | Text Only | Print | Product List | Glossary Off
Versions: 1 2 3 4 5 6 7 8 9 10 11 12 13 14 15 16 17 18 19 20 21 22 23 24 25 26 27 28 29 30 31 32 33 34 35 36 37 38 39 40 41 42 43 44 45 46 47 48 49 50

000
ASUS43 KMKX 310800
RWRWI

WISCONSIN REGIONAL WEATHER ROUNDUP
NATIONAL WEATHER SERVICE MILWAUKEE/SULLIVAN WI
300 AM CDT FRI OCT 31 2014

NOTE: "FAIR" INDICATES FEW OR NO CLOUDS BELOW 12,000 FEET WITH NO
SIGNIFICANT WEATHER AND/OR OBSTRUCTIONS TO VISIBILITY.

WIZ001-002-006>008-014>016-023>028-310900-
NORTHWEST WISCONSIN

CITY           SKY/WX    TMP DP  RH WIND       PRES   REMARKS
SUPERIOR ARPT  CLOUDY    31  18  58 N13G18    30.46R WCI  21
ASHLAND        CLOUDY    31  22  69 N14G26    30.39R WCI  21
HAYWARD        CLOUDY    30  20  66 N14G23    30.36R WCI  19
SIREN          CLOUDY    29  17  59 N9        30.41R WCI  21
CUMBERLAND     CLOUDY    30  19  64 N17G24    30.34R WCI  18
RICE LAKE      CLOUDY    31  19  61 N14G24    30.35R WCI  21
CHETEK         MOCLDY    31  21  64 NW12G22   30.32R WCI  22
LADYSMITH      PTCLDY    31  22  68 N21G26    30.31R WCI  18
EAU CLAIRE     CLEAR     30  19  63 N12       30.32R WCI  20
MENOMONIE      CLEAR     31  19  61 NW16G24   30.33S WCI  20
NEW RICHMOND   CLEAR     28  18  65 N14G21    30.40R WCI  17
OSCEOLA        CLEAR     29  18  64 N13       30.45R WCI  18
$$

WIZ003>005-009-010-017-018-310900-
NORTH CENTRAL WISCONSIN

CITY           SKY/WX    TMP DP  RH WIND       PRES   REMARKS
MANITOWISH WTR LGT SNOW  28  27  94 N12G18    30.22R WCI  18
ARBOR VITAE    LGT SNOW  32  30  92 N17G25    30.20R WCI  21
WOODRUFF       LGT SNOW  32  30  92 N17G25    30.20R WCI  21
RHINELANDER    MOCLDY    29  24  82 N10G25    30.18R WCI  20
EAGLE RIVER    FLURRIES  29  24  82 N15G28    30.16R WCI  18
LAND O LAKES   FLURRIES  30  26  85 N13G28    30.18R WCI  20
PHILLIPS       FLURRIES  28  24  85 N12G20    30.23R WCI  18
TOMAHAWK       CLOUDY    30  24  80 N14G23    30.19R WCI  19
MEDFORD        CLOUDY    30  24  78 N21G30    30.19R WCI  17
MERRILL        CLOUDY    31  27  87 N21       30.16R WCI  18
$$

WIZ029-030-035-036-043>047-310900-
CENTRAL WISCONSIN

CITY           SKY/WX    TMP DP  RH WIND       PRES   REMARKS
WAUSAU         LGT SNOW  31  28  89 N16G30    30.15R FOG     WCI  20
MOSINEE        LGT SNOW  32  32 100 N24G30    30.15R VSB 1   WCI  19
MARSHFIELD     CLOUDY    32  26  78 N24G36    30.18R WCI  19
STEVENS POINT  LGT SNOW  30  28  93 NW10G20   30.13R VSB 1   WCI  21
WAUPACA        CLOUDY    38  28  67 NW17G23   30.09R WCI  29
WAUTOMA        NOT AVBL
WISC RAPIDS    LGT SNOW  31  28  89 NW17G25   30.17R FOG     WCI  19
CAMP DOUGLAS   FLURRIES  32  25  74 NW20      30.19S WCI  20
$$

WIZ011>013-019>022-031-037>040-048>050-310900-
NORTHEAST WISCONSIN

CITY           SKY/WX    TMP DP  RH WIND       PRES   REMARKS
ANTIGO         CLOUDY    31  28  86 N24G31    30.10R WCI  18
SHAWANO        CLOUDY    39  31  75 N14G21    30.07R WCI  30
OCONTO         CLOUDY    37  33  86 N14G28    30.05R WCI  28
STURGEON BAY   CLOUDY    37  30  75 N24G37    30.01R WCI  26
GREEN BAY      LGT RAIN  38  32  79 NW16      30.05R WCI  29
MANITOWOC      NOT AVBL
APPLETON       FLURRIES  36  30  80 NW17G23   30.06R WCI  25
CLINTONVILLE   LGT SNOW  34  32  93 NW10      30.08R WCI  26
OSHKOSH        CLOUDY    37  29  72 NW21G28   30.06R WCI  26
$$

WIZ032>034-041-042-053>061-310900-
SOUTHWEST WISCONSIN

CITY           SKY/WX    TMP DP  RH WIND       PRES   REMARKS
LA CROSSE      MOCLDY    34  19  54 N18G28    30.28R WCI  23
SPARTA         CLOUDY    32  20  62 NW16G24   30.24R WCI  21
VIROQUA        CLOUDY    32  19  59 N18G24    30.22R WCI  20
BOSCOBEL       PTCLDY    37  15  40 NW17G35   30.23R WCI  27
PRAIRIE DU CHI CLOUDY    38  19  45 NW24      30.22R WCI  27
PLATTEVILLE    CLOUDY    38  24  57 N26G35    30.16R WCI  27
$$

WIZ056-057-062-063-064-067-068-310900-
SOUTH CENTRAL WISCONSIN

CITY           SKY/WX    TMP DP  RH WIND       PRES   REMARKS
REEDSBURG      CLOUDY    34  23  63 NW18G30   30.16R WCI  23
BARABOO/DELLS  CLOUDY    34  24  66 NW18G25   30.14R WCI  23
LONE ROCK      NOT AVBL
MINERAL POINT  CLOUDY    37  21  52 NW20G31   30.15R WCI  27
MADISON        CLOUDY    37  27  67 NW16G26   30.12R WCI  28
MIDDLETON      CLOUDY    38  26  62 N16G29    30.12R WCI  28
WATERTOWN      CLOUDY    38  31  75 N17G26    30.07R WCI  29
MONROE         LGT RAIN  41  30  65 N16G24    30.09R
JANESVILLE     CLOUDY    41  30  65 N13G24    30.08R
$$

WIZ051-052-058>065-066-070>072-310900-
SOUTHEAST WISCONSIN

CITY           SKY/WX    TMP DP  RH WIND       PRES   REMARKS
MILWAUKEE      CLOUDY    43  31  62 NW17G26   30.02S
WAUKESHA       CLOUDY    37  30  75 NW21G36   30.05R WCI  27
MILWAUKEE/TIMM MIX PCPN  41  32  70 NW23G30   30.03S
RACINE         CLOUDY    44  30  57 NW13G22   30.03S
BURLINGTON     CLOUDY    41  31  68 NW21G29   30.04R
KENOSHA        LGT RAIN  43  34  70 NW8       30.02S
FOND DU LAC    CLOUDY    38  28  67 NW20G30   30.06R WCI  28
SHEBOYGAN      LGT RAIN  38  32  79 NW16      30.03R WCI  29
WEST BEND      DRIZZLE   37  32  81 NW13G18   30.03S WCI  29
JUNEAU         CLOUDY    36  32  85 NW17G25   30.08R WCI  26
$$

LSZ147-162-310900-
LAKE SUPERIOR

STATION/POSITION TIME  TEMP    WIND        PRES    WAVE
                       AIR SEA DIR/SP/G            HT/PER
                 (UTC) (F)     (DEG/KT/KT) (MB)    (FT/S)
W MID LAKE BUOY  0650   34 44  360/ 25/ 31 1026.2R   8/ 7
DEVILS ISLAND    0700   33     360/ 31/ 37 1029.1R
PORT WING        0700   34     360/ 26/ 31 1029.5R
SAXON HARBOR     0702   37     360/ 24     1026.8R
$$

LMZ867-665-643>646-310900-
LAKE MICHIGAN

STATION/POSITION TIME  TEMP    WIND        PRES    WAVE
                       AIR SEA DIR/SP/G            HT/PER
                 (UTC) (F)     (DEG/KT/KT) (MB)    (FT/S)
CHAMBERS ISLAND  0700   40     320/ 23/ 30 1015.9R
N MID LAKE BUOY  0650   41 51  330/ 23/ 27 1013.5F   3/ 4
NORTHPORT PIER   0700   41     330/ 29/ 35 1015.2R
KEWAUNEE LAKESHO 0700   40     330/ 12/ 18 1014.9R
SHEBOYGAN LAKESH 0700   42 50  310/ 17/ 24 1016.7R
PORT WASHINGTON  0700   43     310/  9/ 17 1016.9
ATWATER BUOY     0700   45     290/ 21/ 25 1017.2S
MILWAUKEE LAKESH 0700   44     320/ 15/ 22   N/A
S MID LAKE BUOY  0650   46 53  300/ 21/ 25 1015.5F   3/ 4
KENOSHA   LAKESH 0700   45     310/  9/ 13 1016.3S
$$

TC  - TEMPERATURE IN CELSIUS
VSB - VISIBILITY IN STATUTE MILES
WCI - WIND CHILL INDEX
HX  - HEAT INDEX




USA.gov is the U.S. government's official web portal to all federal, state and local government web resources and services.